KQ4DLB-13 Weather Reports


time (UTC)temp
F
wind
direction
speed
knots
gust
knots
rain 1hr
in
rain 24hr
in
rain mn
in
humidity
%
barometer
mb
20260906004002 82 285 4.3 13.0 0.00 0.00 0.00 85 986.9
20260906003502 82 272 9.6 13.9 0.00 0.00 0.00 84 986.8
20260906003002 83 271 10.4 13.9 0.00 0.00 0.00 82 986.6
20260906002503 83 259 8.7 14.8 0.00 0.00 0.00 82 986.4
20260906002002 84 209 9.6 16.5 0.00 0.00 0.00 81 986.5
20260906001502 84 202 10.4 15.6 0.00 0.00 0.00 80 986.6
20260906001003 84 205 10.4 14.8 0.00 0.00 0.00 79 986.6
20260906000502 85 207 10.4 15.6 0.00 0.00 0.00 78 986.6
20260906000002 85 206 9.6 14.8 0.00 0.00 0.00 77 986.7
20260905235503 86 201 10.4 15.6 0.00 0.00 0.00 76 986.8
20260905235003 86 203 10.4 15.6 0.00 0.00 0.00 75 986.9
20260905234503 87 204 9.6 15.6 0.00 0.00 0.00 74 987.0
20260905234002 87 204 11.3 14.8 0.00 0.00 0.00 73 987.0
20260905233502 88 199 10.4 15.6 0.00 0.00 0.00 71 987.0
20260905233003 88 179 12.2 19.1 0.00 0.00 0.00 70 986.9
20260905232502 89 177 12.2 17.4 0.00 0.00 0.00 69 986.8
20260905232002 90 176 10.4 16.5 0.00 0.00 0.00 67 986.8
20260905231502 91 181 10.4 15.6 0.00 0.00 0.00 65 986.8
20260905231002 92 170 10.4 14.8 0.00 0.00 0.00 61 986.8
20260905230502 92 176 9.6 14.8 0.00 0.00 0.00 59 986.9
20260905230003 93 169 9.6 14.8 0.00 0.00 0.00 57 986.9
20260905225502 93 176 8.7 14.8 0.00 0.00 0.00 58 986.9
20260905225002 94 184 10.4 14.8 0.00 0.00 0.00 58 986.9
20260905224502 95 171 10.4 15.6 0.00 0.00 0.00 54 986.9
20260905224002 95 168 8.7 13.0 0.00 0.00 0.00 53 986.9
20260905223502 95 167 7.0 12.2 0.00 0.00 0.00 55 986.8
20260905223002 96 170 8.7 13.9 0.00 0.00 0.00 55 986.8
20260905222502 96 169 7.8 13.9 0.00 0.00 0.00 53 986.9
20260905222002 96 171 6.1 10.4 0.00 0.00 0.00 51 986.9
20260905221502 96 176 7.0 13.9 0.00 0.00 0.00 51 986.9
20260905221003 96 174 6.1 11.3 0.00 0.00 0.00 50 987.0
20260905220502 96 172 7.0 12.2 0.00 0.00 0.00 50 987.0
20260905220002 95 172 6.1 8.7 0.00 0.00 0.00 51 987.0
20260905215503 95 169 7.8 12.2 0.00 0.00 0.00 51 987.0
20260905215002 95 170 7.0 12.2 0.00 0.00 0.00 52 987.0
20260905214502 95 163 9.6 14.8 0.00 0.00 0.00 54 987.1
20260905214002 96 167 7.8 12.2 0.00 0.00 0.00 52 987.1
20260905213502 96 164 7.8 13.0 0.00 0.00 0.00 52 987.1
20260905213002 97 172 7.0 11.3 0.00 0.00 0.00 52 987.1
20260905212503 97 159 6.1 8.7 0.00 0.00 0.00 50 987.1
20260905212002 98 175 7.8 12.2 0.00 0.00 0.00 50 987.1
20260905211502 97 169 6.1 10.4 0.00 0.00 0.00 51 987.1
20260905211002 96 164 6.1 11.3 0.00 0.00 0.00 51 987.2
20260905210502 96 172 7.0 10.4 0.00 0.00 0.00 50 987.2
20260905210003 96 172 7.0 9.6 0.00 0.00 0.00 51 987.3
20260905205503 97 164 6.1 9.6 0.00 0.00 0.00 49 987.3
20260905205002 97 181 9.6 16.5 0.00 0.00 0.00 50 987.4
20260905204502 96 162 5.2 9.6 0.00 0.00 0.00 50 987.5
20260905204002 96 171 7.0 10.4 0.00 0.00 0.00 52 987.6
20260905203503 96 168 9.6 13.0 0.00 0.00 0.00 51 987.6
20260905203002 96 170 8.7 13.9 0.00 0.00 0.00 51 987.6
20260905202502 96 162 9.6 14.8 0.00 0.00 0.00 52 987.7
20260905202002 95 180 7.8 13.0 0.00 0.00 0.00 53 987.8
20260905201502 95 172 7.8 13.0 0.00 0.00 0.00 55 987.9
20260905201002 95 167 7.8 13.0 0.00 0.00 0.00 51 987.9
20260905200502 95 264 5.2 8.7 0.00 0.00 0.00 50 988.0
20260905200003 95 174 9.6 14.8 0.00 0.00 0.00 52 988.1
20260905195501 95 177 7.8 13.9 0.00 0.00 0.00 53 988.2
20260905195003 95 178 9.6 13.0 0.00 0.00 0.00 54 988.2
20260905194503 95 169 7.8 10.4 0.00 0.00 0.00 54 988.3
20260905194002 95 179 8.7 12.2 0.00 0.00 0.00 54 988.3
20260905193502 95 184 7.8 13.0 0.00 0.00 0.00 51 988.3
20260905193003 95 185 7.8 12.2 0.00 0.00 0.00 52 988.3
20260905192502 96 175 7.8 11.3 0.00 0.00 0.00 53 988.4
20260905192002 96 168 7.8 11.3 0.00 0.00 0.00 49 988.4
20260905191502 97 176 9.6 13.9 0.00 0.00 0.00 50 988.5
20260905191002 96 180 6.1 11.3 0.00 0.00 0.00 50 988.6
20260905190503 96 159 7.0 13.9 0.00 0.00 0.00 50 988.8
20260905190002 96 153 5.2 8.7 0.00 0.00 0.00 51 988.9
20260905185502 96 161 5.2 7.8 0.00 0.00 0.00 52 989.0
20260905185002 95 162 7.0 14.8 0.00 0.00 0.00 52 989.1
20260905184502 95 165 8.7 15.6 0.00 0.00 0.00 51 989.1
20260905184002 95 176 7.0 12.2 0.00 0.00 0.00 52 989.2
20260905183502 94 178 6.1 10.4 0.00 0.00 0.00 52 989.2
20260905183002 94 164 8.7 12.2 0.00 0.00 0.00 55 989.3
20260905182502 93 182 6.1 10.4 0.00 0.00 0.00 57 989.3
20260905182002 92 177 9.6 15.6 0.00 0.00 0.00 60 989.3
20260905181503 93 159 11.3 14.8 0.00 0.00 0.00 61 989.4
20260905181002 94 157 12.2 16.5 0.00 0.00 0.00 59 989.5
20260905180502 95 175 10.4 17.4 0.00 0.00 0.00 56 989.5
20260905180002 95 179 11.3 19.1 0.00 0.00 0.00 53 989.5
20260905175502 95 181 7.0 13.9 0.00 0.00 0.00 53 989.5
20260905175002 95 179 7.0 12.2 0.00 0.00 0.00 54 989.5
20260905174502 94 292 5.2 8.7 0.00 0.00 0.00 54 989.5
20260905174003 94 176 10.4 15.6 0.00 0.00 0.00 56 989.6
20260905173502 94 185 8.7 17.4 0.00 0.00 0.00 56 989.6
20260905173002 94 178 6.1 11.3 0.00 0.00 0.00 56 989.7
20260905172502 94 170 7.0 10.4 0.00 0.00 0.00 57 989.7
20260905172002 94 142 5.2 9.6 0.00 0.00 0.00 55 989.7
20260905171502 94 201 6.1 9.6 0.00 0.00 0.00 56 989.8
20260905171002 93 179 8.7 15.6 0.00 0.00 0.00 56 989.8
20260905170502 93 347 8.7 14.8 0.00 0.00 0.00 55 989.8
20260905170003 93 185 7.0 13.9 0.00 0.00 0.00 57 989.9
20260905165502 93 347 6.1 13.0 0.00 0.00 0.00 58 990.0
20260905165002 93 127 5.2 10.4 0.00 0.00 0.00 56 990.1
20260905164502 93 236 6.1 12.2 0.00 0.00 0.00 57 990.2
20260905164002 93 327 6.1 13.9 0.00 0.00 0.00 57 990.2
20260905163502 93 300 5.2 10.4 0.00 0.00 0.00 58 990.2
20260905163002 93 232 5.2 11.3 0.00 0.00 0.00 58 990.2
20260905162502 92 321 6.1 11.3 0.00 0.00 0.00 58 990.2
20260905162003 91 317 4.3 8.7 0.00 0.00 0.00 62 990.2
20260905161502 91 319 4.3 6.1 0.00 0.00 0.00 61 990.3
20260905161002 90 318 4.3 7.0 0.00 0.00 0.00 62 990.3
20260905160502 90 319 4.3 6.1 0.00 0.00 0.00 64 990.3
20260905160003 89 319 4.3 6.1 0.00 0.00 0.00 65 990.4
20260905155502 89 286 7.8 19.1 0.00 0.00 0.00 69 990.4
20260905155002 89 239 12.2 17.4 0.00 0.00 0.00 68 990.5
20260905154502 88 242 11.3 19.1 0.00 0.00 0.00 66 990.5
20260905154002 88 238 12.2 18.2 0.00 0.00 0.00 70 990.6
20260905153502 87 224 12.2 20.0 0.00 0.00 0.00 71 990.6
20260905153002 87 213 13.0 20.9 0.00 0.00 0.00 71 990.6
20260905152502 86 215 10.4 18.2 0.00 0.00 0.00 72 990.6
20260905152003 85 213 9.6 13.9 0.00 0.00 0.00 74 990.6
20260905151502 85 267 7.8 14.8 0.00 0.00 0.00 77 990.4
20260905151002 85 275 4.3 11.3 0.00 0.00 0.00 79 990.3
20260905150502 84 312 2.6 5.2 0.00 0.00 0.00 81 990.4
20260905150002 84 291 3.5 8.7 0.00 0.00 0.00 81 990.4
20260905145503 83 316 1.7 3.5 0.00 0.00 0.00 80 990.4
20260905145003 82 310 3.5 6.1 0.00 0.00 0.00 81 990.4
20260905144502 82 293 2.6 7.0 0.00 0.00 0.00 84 990.7
20260905144002 82 278 4.3 10.4 0.00 0.00 0.00 85 990.9
20260905143502 82 286 4.3 6.1 0.00 0.00 0.00 84 991.0
20260905143003 82 295 2.6 7.8 0.00 0.00 0.00 83 991.0
20260905142502 81 304 3.5 10.4 0.00 0.00 0.00 86 990.9
20260905142002 81 290 5.2 12.2 0.00 0.00 0.00 87 991.0
20260905141502 80 317 2.6 6.1 0.00 0.00 0.00 89 991.0
20260905141002 79 299 4.3 20.9 0.00 0.00 0.00 90 990.9
20260905140502 79 254 6.1 13.9 0.00 0.00 0.00 90 990.9
20260905140003 78 311 3.5 7.0 0.00 0.00 0.00 90 990.9
20260905135502 78 311 3.5 6.1 0.00 0.00 0.00 91 990.9
20260905135002 77 307 3.5 6.1 0.00 0.00 0.00 93 990.9
20260905134502 77 280 4.3 9.6 0.00 0.00 0.00 94 991.0
20260905134002 76 246 4.3 12.2 0.00 0.00 0.00 95 991.0
20260905133502 76 252 5.2 13.0 0.00 0.00 0.00 95 991.0
20260905133003 76 208 7.8 15.6 0.00 0.00 0.00 96 991.0
20260905132502 76 195 7.8 15.6 0.00 0.00 0.00 97 991.0
20260905132002 75 198 9.6 14.8 0.00 0.00 0.00 98 991.0
20260905131502 75 194 9.6 15.6 0.00 0.00 0.00 98 991.0
20260905131002 75 202 8.7 14.8 0.00 0.00 0.00 98 990.9
20260905130502 75 196 8.7 14.8 0.00 0.00 0.00 99 990.9
20260905130002 74 194 9.6 14.8 0.00 0.00 0.00 99 990.9
20260905125502 74 197 9.6 14.8 0.00 0.00 0.00 99 991.0
20260905125003 74 203 10.4 13.9 0.00 0.00 0.00 99 991.0
20260905124503 73 218 8.7 13.9 0.00 0.00 0.00 99 991.0
20260905124002 73 221 8.7 14.8 0.00 0.00 0.00 99 991.0
20260905123502 73 214 7.0 14.8 0.00 0.00 0.00 99 990.9
20260905123003 73 248 4.3 12.2 0.00 0.00 0.00 99 990.9
20260905122502 73 250 4.3 11.3 0.00 0.00 0.00 99 990.9
20260905122002 72 264 2.6 9.6 0.00 0.00 0.00 99 990.7
20260905121502 72 317 1.7 1.7 0.00 0.00 0.00 99 990.7
20260905121003 72 316 1.7 1.7 0.00 0.00 0.00 99 990.6
20260905120502 72 317 1.7 3.5 0.00 0.00 0.00 99 990.6
20260905120002 72 317 2.6 4.3 0.00 0.00 0.00 99 990.5
20260905115502 72 315 3.5 5.2 0.00 0.00 0.00 99 990.4
20260905115002 72 308 2.6 5.2 0.00 0.00 0.00 99 990.4
20260905114502 72 317 3.5 5.2 0.00 0.00 0.00 99 990.4
20260905114003 72 314 3.5 4.3 0.00 0.00 0.00 99 990.3
20260905113502 72 317 3.5 5.2 0.00 0.00 0.00 99 990.2
20260905113002 72 316 3.5 4.3 0.00 0.00 0.00 99 990.2
20260905112502 72 316 3.5 5.2 0.00 0.00 0.00 99 990.1
20260905112002 72 315 3.5 6.1 0.00 0.00 0.00 99 990.1
20260905111502 72 314 3.5 7.0 0.00 0.00 0.00 99 990.0
20260905111002 72 317 2.6 3.5 0.00 0.00 0.00 99 989.9
20260905110502 72 312 2.6 10.4 0.00 0.00 0.00 99 989.8
20260905110002 72 313 3.5 17.4 0.00 0.00 0.00 99 989.8
20260905105503 72 318 2.6 3.5 0.00 0.00 0.00 99 989.8
20260905105002 72 317 2.6 4.3 0.00 0.00 0.00 98 989.7
20260905104503 72 318 3.5 4.3 0.00 0.00 0.00 99 989.6
20260905104002 72 309 3.5 13.0 0.00 0.00 0.00 98 989.6
20260905103502 72 310 2.6 7.8 0.00 0.00 0.00 98 989.6
20260905103002 72 306 3.5 7.0 0.00 0.00 0.00 98 989.6
20260905102503 72 319 3.5 4.3 0.00 0.00 0.00 98 989.6
20260905102003 72 313 3.5 7.0 0.00 0.00 0.00 98 989.6
20260905101502 72 305 4.3 10.4 0.00 0.00 0.00 98 989.6
20260905101002 72 316 3.5 10.4 0.00 0.00 0.00 98 989.5
20260905100502 72 306 4.3 11.3 0.00 0.00 0.00 98 989.6
20260905100002 72 308 5.2 13.0 0.00 0.00 0.00 98 989.6
20260905095502 72 311 4.3 13.0 0.00 0.00 0.00 98 989.6
20260905095003 72 312 3.5 10.4 0.00 0.00 0.00 98 989.6
20260905094502 72 314 3.5 9.6 0.00 0.00 0.00 98 989.6
20260905094002 72 309 3.5 11.3 0.00 0.00 0.00 98 989.6
20260905093503 72 313 3.5 8.7 0.00 0.00 0.00 98 989.7
20260905093003 72 311 3.5 12.2 0.00 0.00 0.00 98 989.6
20260905092502 72 302 3.5 13.0 0.00 0.00 0.00 98 989.7
20260905092002 72 313 2.6 10.4 0.00 0.00 0.00 98 989.6
20260905091503 72 315 2.6 7.0 0.00 0.00 0.00 98 989.6
20260905091002 72 310 3.5 10.4 0.00 0.00 0.00 98 989.6
20260905090502 72 290 3.5 22.6 0.00 0.00 0.00 98 989.6
20260905090003 72 294 3.5 11.3 0.00 0.00 0.00 98 989.6
20260905085502 72 305 4.3 14.8 0.00 0.00 0.00 98 989.6
20260905085002 72 306 4.3 13.0 0.00 0.00 0.00 98 989.6
20260905084502 73 316 2.6 5.2 0.00 0.00 0.00 98 989.5
20260905084002 73 316 3.5 5.2 0.00 0.00 0.00 98 989.6
20260905083502 73 316 3.5 6.1 0.00 0.00 0.00 98 989.6
20260905083003 73 316 3.5 5.2 0.00 0.00 0.00 98 989.6
20260905082503 73 316 2.6 4.3 0.00 0.00 0.00 98 989.7
20260905082002 73 316 3.5 5.2 0.00 0.00 0.00 97 989.7
20260905081502 73 316 3.5 5.2 0.00 0.00 0.00 97 989.7
20260905081007 73 316 2.6 4.3 0.00 0.00 0.00 97 989.8
20260905080503 73 316 3.5 7.0 0.00 0.00 0.00 97 989.8
20260905080002 73 317 3.5 5.2 0.00 0.00 0.00 97 989.8
20260905075502 73 317 3.5 5.2 0.00 0.00 0.00 97 989.7
20260905075002 73 316 2.6 4.3 0.00 0.00 0.00 97 989.7
20260905074502 73 316 2.6 4.3 0.00 0.00 0.00 97 989.7
20260905074002 73 316 2.6 4.3 0.00 0.00 0.00 97 989.7
20260905073502 73 316 1.7 3.5 0.00 0.00 0.00 97 989.7
20260905073002 73 316 3.5 11.3 0.00 0.00 0.00 97 989.7
20260905072502 73 315 4.3 14.8 0.00 0.00 0.00 97 989.7
20260905072002 73 317 3.5 5.2 0.00 0.00 0.00 97 989.7
20260905071503 73 317 3.5 4.3 0.00 0.00 0.00 97 989.7
20260905071002 73 317 3.5 6.1 0.00 0.00 0.00 97 989.6
20260905070502 73 216 9.6 21.7 0.00 0.00 0.00 97 989.6
20260905070002 74 217 13.9 20.9 0.00 0.00 0.00 97 989.6
20260905065502 74 245 13.9 21.7 0.00 0.00 0.00 97 989.7
20260905065002 74 186 13.0 21.7 0.00 0.00 0.00 97 989.7
20260905064503 74 194 14.8 21.7 0.00 0.00 0.00 97 989.6
20260905064002 74 251 13.9 20.9 0.00 0.00 0.00 97 989.6
20260905063502 74 247 13.9 20.0 0.00 0.00 0.00 97 989.6
20260905063002 74 221 13.9 20.0 0.00 0.00 0.00 97 989.6
20260905062502 74 190 13.9 21.7 0.00 0.00 0.00 97 989.6
20260905062003 74 171 14.8 22.6 0.00 0.00 0.00 97 989.6
20260905061502 74 171 16.5 20.9 0.00 0.00 0.00 97 989.7
20260905061002 74 185 15.6 22.6 0.00 0.00 0.00 97 989.6
20260905060502 74 201 11.3 19.1 0.00 0.00 0.00 97 989.7
20260905060002 74 247 10.4 19.1 0.00 0.00 0.00 97 989.7
20260905055503 74 268 9.6 17.4 0.00 0.00 0.00 96 989.7
20260905055002 74 233 9.6 19.1 0.00 0.00 0.00 96 989.7
20260905054502 74 213 8.7 16.5 0.00 0.00 0.00 96 989.7
20260905054002 74 280 9.6 32.2 0.00 0.00 0.00 96 989.8
20260905053503 74 173 15.6 37.4 0.00 0.00 0.00 96 989.9
20260905053002 74 171 13.0 20.0 0.00 0.00 0.00 96 989.9
20260905052502 74 214 6.1 15.6 0.00 0.00 0.00 96 989.9
20260905052002 74 282 8.7 17.4 0.00 0.00 0.00 96 989.9
20260905051502 74 224 6.1 14.8 0.00 0.00 0.00 96 989.9
20260905051002 75 272 8.7 16.5 0.00 0.00 0.00 95 989.9
20260905050502 75 182 11.3 16.5 0.00 0.00 0.00 95 990.0
20260905050003 75 188 5.2 15.6 0.00 0.00 0.00 95 990.0
20260905045502 75 227 6.1 17.4 0.00 0.00 0.00 95 990.0
20260905045002 75 263 12.2 17.4 0.00 0.00 0.00 95 990.1
20260905044503 75 201 10.4 16.5 0.00 0.00 0.00 95 990.1
20260905044002 75 236 5.2 14.8 0.00 0.00 0.00 95 990.1
20260905043502 75 195 7.8 16.5 0.00 0.00 0.00 95 990.1
20260905043003 75 239 6.1 17.4 0.00 0.00 0.00 94 990.1
20260905042503 75 166 14.8 19.1 0.00 0.00 0.00 94 990.2
20260905042002 75 171 13.0 20.0 0.00 0.00 0.00 94 990.2
20260905041502 75 173 12.2 26.9 0.00 0.00 0.00 94 990.2
20260905041002 75 182 7.8 16.5 0.00 0.00 0.00 94 990.1
20260905040502 75 314 1.7 3.5 0.00 0.00 0.00 94 990.2
20260905040002 76 313 1.7 7.0 0.00 0.00 0.00 94 990.2
20260905035503 76 288 2.6 14.8 0.00 0.00 0.00 94 990.3
20260905035002 76 315 1.7 3.5 0.00 0.00 0.00 93 990.2
20260905034502 76 315 1.7 3.5 0.00 0.00 0.00 93 990.3
20260905034002 76 316 1.7 2.6 0.00 0.00 0.00 93 990.4
20260905033503 76 315 0.9 2.6 0.00 0.00 0.00 93 990.4
20260905033002 76 315 0.9 1.7 0.00 0.00 0.00 93 990.4
20260905032502 76 315 0.9 1.7 0.00 0.00 0.00 92 990.5
20260905032002 76 315 0.9 1.7 0.00 0.00 0.00 92 990.5
20260905031502 76 315 0.9 1.7 0.00 0.00 0.00 91 990.5
20260905031003 77 315 0.9 1.7 0.00 0.00 0.00 91 990.5
20260905030502 77 315 0.9 2.6 0.00 0.00 0.00 91 990.6
20260905030002 77 315 2.6 4.3 0.00 0.00 0.00 90 990.6
20260905025502 77 316 1.7 4.3 0.00 0.00 0.00 90 990.6
20260905025002 77 315 0.9 1.7 0.00 0.00 0.00 90 990.6
20260905024502 77 315 0.9 2.6 0.00 0.00 0.00 90 990.6
20260905024002 77 315 1.7 2.6 0.00 0.00 0.00 90 990.5
20260905023502 77 315 1.7 2.6 0.00 0.00 0.00 89 990.6
20260905023002 78 315 1.7 2.6 0.00 0.00 0.00 89 990.5
20260905022502 78 315 0.9 2.6 0.00 0.00 0.00 88 990.5
20260905022002 78 315 0.9 1.7 0.00 0.00 0.00 87 990.5
20260905021503 78 315 0.9 1.7 0.00 0.00 0.00 87 990.5
20260905021002 78 316 3.5 6.1 0.00 0.00 0.00 86 990.5
20260905020502 78 316 5.2 7.8 0.00 0.00 0.00 87 990.4
20260905020002 78 315 1.7 2.6 0.00 0.00 0.00 87 990.1
20260905015502 78 315 0.9 1.7 0.00 0.00 0.00 87 990.1
20260905015003 78 315 0.9 1.7 0.00 0.00 0.00 86 990.1
20260905014502 78 315 0.9 1.7 0.00 0.00 0.00 86 990.0
20260905014002 78 315 0.9 1.7 0.00 0.00 0.00 85 989.8
20260905013503 79 315 0.9 1.7 0.00 0.00 0.00 85 989.7
20260905013002 79 315 0.9 1.7 0.00 0.00 0.00 85 989.7
20260905012501 79 315 0.9 1.7 0.00 0.00 0.00 84 989.7
20260905012002 79 315 0.9 1.7 0.00 0.00 0.00 84 989.7
20260905011503 79 315 0.9 1.7 0.00 0.00 0.00 83 989.6
20260905011002 80 315 0.9 2.6 0.00 0.00 0.00 82 989.5
20260905010502 80 315 1.7 2.6 0.00 0.00 0.00 82 989.5
20260905010002 80 315 1.7 3.5 0.00 0.00 0.00 82 989.4
20260905005502 81 315 2.6 2.6 0.00 0.00 0.00 80 989.3
20260905005002 81 315 2.6 3.5 0.00 0.00 0.00 79 989.3
20260905004503 82 315 2.6 3.5 0.00 0.00 0.00 79 989.3